Regional Weather Roundup
Issued by NWS

Home | Current Version | Previous Version | Graphics & Text | Print | Product List | Glossary Off
Versions: 1 2 3 4 5 6 7 8 9 10 11 12 13 14 15 16 17 18 19 20 21 22 23 24 25 26 27 28 29 30 31 32 33 34 35 36 37 38 39 40 41 42 43 44 45 46 47 48 49 50

000
ASUS43 KTOP 311208
RWRKS

WEATHER ROUNDUP FOR KANSAS
NATIONAL WEATHER SERVICE GOODLAND KS
700 AM CDT WED AUG 31 2016

NOTE:  "FAIR" INDICATES FEW OR NO CLOUDS BELOW 12,000 FEET WITH NO
SIGNIFICANT WEATHER AND/OR OBSTRUCTIONS TO VISIBILITY.

KSZ001>006-013>018-027>032-041>047-311300-
NORTHWEST KANSAS

CITY           SKY/WX    TMP DP  RH WIND       PRES   REMARKS
GOODLAND       FOG       63  63 100 S5        30.23S VSB 3/4
6HR MIN TEMP:  61; 6HR MAX TEMP:  64;

HAYS           CLOUDY    68  61  77 N3        30.17S
HILL CITY      CLOUDY    64  64 100 NW3       30.19S
6HR MIN TEMP:  63; 6HR MAX TEMP:  66;

RUSSELL        MOCLDY    68  68 100 N6        30.15S
6HR MIN TEMP:  68; 6HR MAX TEMP:  70; 6HR PCP: TRACE;

$$

KSZ061>065-074>080-084>089-311300-
SOUTHWEST KANSAS

CITY           SKY/WX    TMP DP  RH WIND       PRES   REMARKS
DODGE CITY     FOG       67  66  97 N3        30.18S VSB 1/2
6HR MIN TEMP:  67; 6HR MAX TEMP:  68;

ELKHART          N/A     65  59  81 W2          N/A
GARDEN CITY    CLOUDY    65  63  93 E7        30.20R
6HR MIN TEMP:  63; 6HR MAX TEMP:  67;

GREAT BEND     CLOUDY    70  63  78 N7        30.16R
LIBERAL        PTCLDY    66  63  88 N3        30.20S
PRATT          CLOUDY    65  65  98 CALM      30.15S FOG
6HR MIN TEMP:  64; 6HR MAX TEMP:  66;

$$

KSZ066>073-081>083-090>101-311300-
SOUTHEAST KANSAS

CITY           SKY/WX    TMP DP  RH WIND       PRES   REMARKS
CHANUTE        CLOUDY    71  69  93 CALM      30.09S
6HR MIN TEMP:  71; 6HR MAX TEMP:  72; 6HR PCP:  0.01;

HUTCHINSON     FOG       71  70  96 CALM      30.13R VSB 1/2
6HR MIN TEMP:  69; 6HR MAX TEMP:  72;

MEDICINE LODGE   N/A     68  67  96 N6        30.12S
NEWTON         CLOUDY    70  69  97 E5        30.13R
PARSONS        MOCLDY    71  69  93 N3        30.09S
6HR MIN TEMP:  71; 6HR MAX TEMP:  72; 6HR PCP:  0.01;

WICHITA INTL   CLOUDY    72  68  87 NE3       30.11S
6HR MIN TEMP:  71; 6HR MAX TEMP:  73; 6HR PCP: TRACE;

WICHITA JABRA  PTCLDY    69  69 100 E5        30.11S
6HR MIN TEMP:  68; 6HR MAX TEMP:  69;

WICHITA MCCONL MOCLDY    70  67  88 E2        30.11R
WINFIELD       LGT RAIN  71  69  93 NE5       30.10F
6HR MIN TEMP:  70; 6HR MAX TEMP:  72; 6HR PCP:  0.02;

$$

KSZ007>012-019>026-033>040-048>060-102>105-311300-
NORTHEAST KANSAS

CITY           SKY/WX    TMP DP  RH WIND       PRES   REMARKS
CONCORDIA      LGT RAIN  69  67  93 NE6       30.16R FOG
6HR MIN TEMP:  69; 6HR MAX TEMP:  70; 6HR PCP:  0.02;

EMPORIA        MOCLDY    68  67  96 CALM      30.11R
6HR MIN TEMP:  67; 6HR MAX TEMP:  69;

LAWRENCE       CLOUDY    70  70 100 NW3       30.11R
6HR MIN TEMP:  70; 6HR MAX TEMP:  73; 6HR PCP:  0.30;

MANHATTAN      CLOUDY    71  69  93 CALM      30.13R
6HR MIN TEMP:  71; 6HR MAX TEMP:  73; 6HR PCP: TRACE;

MARYSVILLE     LGT RAIN  70  68  94 N3        30.15S
OLATHE IND     CLOUDY    70  69  97 NE6       30.12R
6HR MIN TEMP:  70; 6HR MAX TEMP:  72; 6HR PCP:  0.07;

OLATHE EXE     CLOUDY    70  68  93 N3        30.11S
6HR MIN TEMP:  70; 6HR MAX TEMP:  72; 6HR PCP:  0.02;

SALINA         CLOUDY    72  71  97 N6        30.13R
6HR MIN TEMP:  71; 6HR MAX TEMP:  73; 6HR PCP: TRACE;

TOPEKA BILLARD CLOUDY    70  68  93 CALM      30.11S
6HR MIN TEMP:  69; 6HR MAX TEMP:  75; 6HR PCP:  1.31;

TOPEKA FORBES  CLOUDY    71  69  93 N5        30.12R
6HR MIN TEMP:  71; 6HR MAX TEMP:  73; 6HR PCP:  0.21;

$$




USA.gov is the U.S. government's official web portal to all federal, state and local government web resources and services.